Time,TemperatureF,DewpointF,PressureIn,WindDirection,WindDirectionDegrees,WindSpeedMPH,WindSpeedGustMPH,Humidity,HourlyPrecipIn,Conditions,Clouds,dailyrainin,SoftwareType,DateUTC
2013-03-05 00:02:00,31.0,25.0,30.04,ENE,67,0.0,0.0,78,0.00,,,0.00,,2013-03-05 05:02:00,
2013-03-05 00:12:00,31.0,25.0,30.04,ENE,67,0.0,0.0,78,0.00,,,0.00,,2013-03-05 05:12:00,
2013-03-05 00:22:00,31.0,25.0,30.04,ENE,67,0.0,0.0,79,0.00,,,0.00,,2013-03-05 05:22:00,
2013-03-05 00:32:00,30.0,24.0,30.03,ENE,67,0.0,0.0,79,0.00,,,0.00,,2013-03-05 05:32:00,
2013-03-05 00:42:00,30.0,24.0,30.03,ENE,67,0.0,0.0,79,0.00,,,0.00,,2013-03-05 05:42:00,
2013-03-05 00:52:00,30.0,25.0,30.03,ENE,67,0.0,0.0,80,0.00,,,0.00,,2013-03-05 05:52:00,
2013-03-05 01:01:00,30.0,25.0,30.03,East,90,0.0,0.0,80,0.00,,,0.00,,2013-03-05 06:01:00,
2013-03-05 01:11:00,30.0,25.0,30.03,East,90,0.0,0.0,80,0.00,,,0.00,,2013-03-05 06:11:00,
2013-03-05 01:22:00,30.0,25.0,30.02,ENE,67,0.0,0.0,80,0.00,,,0.00,,2013-03-05 06:22:00,
2013-03-05 01:32:00,30.0,25.0,30.03,ENE,67,0.0,0.0,81,0.00,,,0.00,,2013-03-05 06:32:00,
2013-03-05 01:42:00,30.0,25.0,30.03,ENE,67,0.0,0.0,81,0.00,,,0.00,,2013-03-05 06:42:00,
2013-03-05 01:52:00,30.0,25.0,30.01,East,90,0.0,0.0,81,0.00,,,0.00,,2013-03-05 06:52:00,
2013-03-05 02:01:00,30.0,25.0,30.01,ENE,67,0.0,0.0,81,0.00,,,0.00,,2013-03-05 07:01:00,
2013-03-05 02:11:00,30.0,25.0,30.01,ENE,67,0.0,0.0,81,0.00,,,0.00,,2013-03-05 07:11:00,
2013-03-05 02:22:00,30.0,25.0,30.01,ESE,112,0.0,0.0,81,0.00,,,0.00,,2013-03-05 07:22:00,
2013-03-05 02:31:00,31.0,26.0,30.00,East,90,0.0,0.0,81,0.00,,,0.00,,2013-03-05 07:31:00,
2013-03-05 02:41:00,31.0,26.0,30.00,East,90,0.0,0.0,81,0.00,,,0.00,,2013-03-05 07:41:00,
2013-03-05 02:52:00,31.0,26.0,30.00,East,90,0.0,0.0,81,0.00,,,0.00,,2013-03-05 07:52:00,
2013-03-05 03:02:00,31.0,26.0,29.99,ENE,67,0.0,0.0,82,0.00,,,0.00,,2013-03-05 08:02:00,
2013-03-05 03:11:00,31.0,26.0,29.99,ENE,67,0.0,0.0,82,0.00,,,0.00,,2013-03-05 08:11:00,
2013-03-05 03:21:00,31.0,26.0,29.98,NE,45,0.0,0.0,82,0.00,,,0.00,,2013-03-05 08:21:00,
2013-03-05 03:31:00,31.0,26.0,29.98,NE,45,0.0,0.0,82,0.00,,,0.00,,2013-03-05 08:31:00,
2013-03-05 03:41:00,31.0,26.0,29.98,NE,45,0.0,0.0,82,0.00,,,0.00,,2013-03-05 08:41:00,
2013-03-05 03:52:00,31.0,26.0,29.98,NE,45,0.0,0.0,82,0.00,,,0.00,,2013-03-05 08:52:00,
2013-03-05 08:32:00,31.0,27.0,29.92,SE,135,4.0,4.0,84,0.00,,,0.00,,2013-03-05 13:32:00,
2013-03-05 08:42:00,31.0,27.0,29.92,SE,135,4.0,4.0,84,0.00,,,0.00,,2013-03-05 13:42:00,
2013-03-05 08:52:00,32.0,28.0,29.91,East,95,3.0,5.0,84,0.18,,,0.18,,2013-03-05 13:52:00,
2013-03-05 09:02:00,32.0,27.0,29.90,East,90,2.0,5.0,83,0.18,,,0.18,,2013-03-05 14:02:00,
2013-03-05 09:11:00,32.0,27.0,29.90,East,90,2.0,5.0,83,0.18,,,0.18,,2013-03-05 14:11:00,
2013-03-05 09:22:00,32.0,27.0,29.90,ESE,112,2.0,5.0,82,0.18,,,0.18,,2013-03-05 14:22:00,
2013-03-05 09:32:00,32.0,27.0,29.90,ENE,67,2.0,2.0,82,0.00,,,0.18,,2013-03-05 14:32:00,
2013-03-05 09:42:00,32.0,27.0,29.90,ENE,67,2.0,2.0,82,0.00,,,0.18,,2013-03-05 14:42:00,
2013-03-05 09:52:00,32.0,27.0,29.90,East,90,2.0,6.0,81,0.00,,,0.18,,2013-03-05 14:52:00,
2013-03-05 10:02:00,32.0,27.0,29.89,ESE,112,3.0,5.0,81,0.00,,,0.18,,2013-03-05 15:02:00,
2013-03-05 10:11:00,32.0,27.0,29.89,ESE,112,3.0,5.0,81,0.00,,,0.18,,2013-03-05 15:11:00,
2013-03-05 10:21:00,33.0,28.0,29.88,East,90,1.0,1.0,81,0.00,,,0.18,,2013-03-05 15:21:00,
2013-03-05 10:32:00,32.0,27.0,29.88,ESE,112,5.0,7.0,80,0.00,,,0.18,,2013-03-05 15:32:00,
2013-03-05 10:42:00,32.0,27.0,29.88,ESE,112,5.0,7.0,80,0.00,,,0.18,,2013-03-05 15:42:00,
2013-03-05 10:52:00,32.0,27.0,29.88,SSE,157,5.0,5.0,80,0.00,,,0.18,,2013-03-05 15:52:00,
2013-03-05 11:01:00,32.0,27.0,29.88,ENE,67,2.0,5.0,80,0.00,,,0.18,,2013-03-05 16:01:00,
2013-03-05 11:11:00,32.0,27.0,29.88,ENE,67,2.0,5.0,80,0.00,,,0.18,,2013-03-05 16:11:00,
2013-03-05 11:21:00,32.0,27.0,29.86,ENE,67,5.0,7.0,80,0.00,,,0.18,,2013-03-05 16:21:00,
2013-03-05 11:32:00,32.0,27.0,29.85,SE,135,6.0,6.0,80,0.00,,,0.18,,2013-03-05 16:32:00,
2013-03-05 11:42:00,32.0,27.0,29.85,SE,135,6.0,6.0,80,0.00,,,0.18,,2013-03-05 16:42:00,
2013-03-05 11:52:00,31.0,26.0,29.84,East,90,4.0,7.0,80,0.00,,,0.18,,2013-03-05 16:52:00,
2013-03-05 12:01:00,31.0,26.0,29.83,East,90,5.0,5.0,80,0.00,,,0.18,,2013-03-05 17:01:00,
2013-03-05 12:11:00,31.0,26.0,29.83,East,90,5.0,5.0,80,0.00,,,0.18,,2013-03-05 17:11:00,
2013-03-05 12:21:00,30.0,24.0,29.83,ESE,112,5.0,5.0,79,0.00,,,0.18,,2013-03-05 17:21:00,
2013-03-05 12:32:00,29.0,23.0,29.83,SE,133,2.0,5.0,79,0.00,,,0.18,,2013-03-05 17:32:00,
2013-03-05 12:42:00,29.0,23.0,29.83,SE,133,2.0,5.0,79,0.00,,,0.18,,2013-03-05 17:42:00,
2013-03-05 12:53:00,28.0,22.0,29.82,South,180,4.0,4.0,79,0.00,,,0.18,,2013-03-05 17:53:00,
2013-03-05 13:02:00,28.0,22.0,29.82,SE,135,3.0,6.0,79,0.00,,,0.18,,2013-03-05 18:02:00,
2013-03-05 13:11:00,28.0,22.0,29.82,SE,135,3.0,6.0,79,0.00,,,0.18,,2013-03-05 18:11:00,
2013-03-05 13:22:00,27.0,22.0,29.81,SE,138,2.0,3.0,81,0.00,,,0.18,,2013-03-05 18:22:00,
2013-03-05 13:32:00,26.0,21.0,29.79,SE,135,3.0,5.0,80,0.00,,,0.18,,2013-03-05 18:32:00,
2013-03-05 13:42:00,26.0,21.0,29.79,SE,135,3.0,5.0,80,0.00,,,0.18,,2013-03-05 18:42:00,
2013-03-05 13:53:00,26.0,21.0,29.79,East,90,1.0,3.0,81,0.00,,,0.18,,2013-03-05 18:53:00,
2013-03-05 14:01:00,25.0,20.0,29.78,ENE,67,3.0,6.0,82,0.00,,,0.18,,2013-03-05 19:01:00,
2013-03-05 14:11:00,25.0,20.0,29.78,ENE,67,3.0,6.0,82,0.00,,,0.18,,2013-03-05 19:11:00,
2013-03-05 14:21:00,25.0,20.0,29.77,SE,135,3.0,3.0,82,0.00,,,0.18,,2013-03-05 19:21:00,
2013-03-05 14:32:00,25.0,21.0,29.75,SE,135,3.0,4.0,83,0.00,,,0.18,,2013-03-05 19:32:00,
2013-03-05 14:42:00,25.0,21.0,29.75,SE,135,3.0,4.0,83,0.00,,,0.18,,2013-03-05 19:42:00,
2013-03-05 14:52:00,25.0,21.0,29.75,East,90,0.0,3.0,83,0.00,,,0.18,,2013-03-05 19:52:00,
2013-03-05 15:01:00,25.0,21.0,29.74,ENE,67,1.0,2.0,83,0.00,,,0.18,,2013-03-05 20:01:00,
2013-03-05 15:11:00,25.0,21.0,29.73,SSE,157,3.0,3.0,83,0.00,,,0.18,,2013-03-05 20:11:00,
2013-03-05 15:22:00,25.0,21.0,29.73,SSE,157,3.0,3.0,83,0.00,,,0.18,,2013-03-05 20:22:00,
2013-03-05 15:32:00,26.0,22.0,29.72,ESE,112,5.0,5.0,84,0.00,,,0.18,,2013-03-05 20:32:00,
2013-03-05 15:42:00,26.0,22.0,29.72,ESE,112,5.0,5.0,84,0.00,,,0.18,,2013-03-05 20:42:00,
2013-03-05 15:52:00,26.0,22.0,29.71,ENE,67,3.0,5.0,84,0.00,,,0.18,,2013-03-05 20:52:00,
2013-03-05 16:02:00,27.0,23.0,29.71,ENE,67,0.0,5.0,84,0.00,,,0.18,,2013-03-05 21:02:00,
2013-03-05 16:11:00,27.0,23.0,29.71,ENE,67,0.0,5.0,84,0.00,,,0.18,,2013-03-05 21:11:00,
2013-03-05 16:22:00,27.0,23.0,29.71,East,90,2.0,2.0,84,0.00,,,0.18,,2013-03-05 21:22:00,
2013-03-05 16:32:00,28.0,24.0,29.71,ENE,67,1.0,3.0,84,0.00,,,0.18,,2013-03-05 21:32:00,
2013-03-05 16:42:00,28.0,24.0,29.71,ENE,67,1.0,3.0,84,0.00,,,0.18,,2013-03-05 21:42:00,
2013-03-05 16:52:00,28.0,24.0,29.71,East,90,3.0,3.0,84,0.00,,,0.18,,2013-03-05 21:52:00,
2013-03-05 17:01:00,30.0,26.0,29.71,ENE,67,1.0,1.0,84,0.00,,,0.18,,2013-03-05 22:01:00,
2013-03-05 17:11:00,30.0,26.0,29.71,ENE,67,1.0,1.0,84,0.00,,,0.18,,2013-03-05 22:11:00,
2013-03-05 17:22:00,30.0,26.0,29.72,ENE,67,0.0,0.0,84,0.00,,,0.18,,2013-03-05 22:22:00,
2013-03-05 17:32:00,31.0,27.0,29.72,ENE,67,0.0,0.0,84,0.00,,,0.18,,2013-03-05 22:32:00,
2013-03-05 17:42:00,31.0,27.0,29.72,ENE,67,0.0,0.0,84,0.00,,,0.18,,2013-03-05 22:42:00,
2013-03-05 17:52:00,31.0,27.0,29.72,ENE,67,0.0,0.0,84,0.00,,,0.18,,2013-03-05 22:52:00,
2013-03-05 18:01:00,31.0,27.0,29.72,ESE,112,0.0,0.0,84,0.00,,,0.18,,2013-03-05 23:01:00,
2013-03-05 18:11:00,31.0,27.0,29.72,ESE,112,0.0,0.0,84,0.00,,,0.18,,2013-03-05 23:11:00,
2013-03-05 18:21:00,31.0,27.0,29.72,East,90,0.0,0.0,84,0.00,,,0.18,,2013-03-05 23:21:00,
2013-03-05 18:32:00,31.0,27.0,29.73,East,90,0.0,0.0,84,0.00,,,0.18,,2013-03-05 23:32:00,
2013-03-05 18:42:00,31.0,27.0,29.73,East,90,0.0,0.0,84,0.00,,,0.18,,2013-03-05 23:42:00,
2013-03-05 18:52:00,31.0,27.0,29.73,East,90,0.0,0.0,84,0.00,,,0.18,,2013-03-05 23:52:00,
2013-03-05 19:02:00,30.0,26.0,29.73,East,90,0.0,0.0,84,0.00,,,0.18,,2013-03-06 00:02:00,
2013-03-05 19:11:00,30.0,26.0,29.73,East,90,0.0,0.0,84,0.00,,,0.18,,2013-03-06 00:11:00,
2013-03-05 19:21:00,30.0,26.0,29.74,East,90,0.0,0.0,84,0.00,,,0.18,,2013-03-06 00:21:00,
2013-03-05 19:32:00,30.0,10.0,29.74,East,90,0.0,0.0,42,0.00,,,0.18,,2013-03-06 00:32:00,
2013-03-05 19:42:00,30.0,10.0,29.74,East,90,0.0,0.0,42,0.00,,,0.18,,2013-03-06 00:42:00,
2013-03-05 19:52:00,30.0,26.0,29.74,East,90,0.0,0.0,84,0.00,,,0.18,,2013-03-06 00:52:00,
2013-03-05 20:02:00,29.0,25.0,29.75,East,90,0.0,0.0,84,0.00,,,0.18,,2013-03-06 01:02:00,
2013-03-05 20:11:00,29.0,25.0,29.75,East,90,0.0,0.0,84,0.00,,,0.18,,2013-03-06 01:11:00,
2013-03-05 20:21:00,29.0,25.0,29.75,East,90,0.0,0.0,84,0.00,,,0.18,,2013-03-06 01:21:00,
2013-03-05 20:32:00,29.0,25.0,29.76,North,-999,-999.0,-999.0,84,0.00,,,0.18,,2013-03-06 01:32:00,
2013-03-05 20:42:00,29.0,25.0,29.76,North,-999,-999.0,-999.0,84,0.00,,,0.18,,2013-03-06 01:42:00,
2013-03-05 20:51:00,29.0,25.0,29.76,North,-999,-999.0,-999.0,84,0.00,,,0.18,,2013-03-06 01:51:00,
2013-03-05 21:01:00,29.0,25.0,29.76,North,-999,-999.0,-999.0,84,0.00,,,0.18,,2013-03-06 02:01:00,
2013-03-05 22:53:00,28.0,24.0,29.78,East,90,0.0,0.0,84,0.00,,,0.18,,2013-03-06 03:53:00,
2013-03-05 23:02:00,28.0,24.0,29.78,East,90,0.0,0.0,85,0.00,,,0.18,,2013-03-06 04:02:00,
2013-03-05 23:11:00,28.0,24.0,29.78,East,90,0.0,0.0,85,0.00,,,0.18,,2013-03-06 04:11:00,
2013-03-05 23:22:00,28.0,24.0,29.79,East,90,0.0,0.0,85,0.00,,,0.18,,2013-03-06 04:22:00,
2013-03-05 23:32:00,28.0,24.0,29.79,East,90,0.0,0.0,85,0.00,,,0.18,,2013-03-06 04:32:00,
2013-03-05 23:42:00,28.0,24.0,29.79,East,90,0.0,0.0,85,0.00,,,0.18,,2013-03-06 04:42:00,
2013-03-05 23:52:00,28.0,24.0,29.79,East,90,0.0,0.0,85,0.00,,,0.18,,2013-03-06 04:52:00,